Location: Dallas
(32.7833°N, 96.8000°W)
Time: 10:20:34
(UTC-05:00)

N. Korean satellite - Pass Details

Date: 10 December 2017
Orbit: 455 x 508 km, 97.2° (Epoch: 20 October)

Event Time Altitude Azimuth Distance (km) Brightness Sun altitude
Rises 18:23:07 0° 163° (SSE) 2,559 10.3 -12.8°
Reaches altitude 10° 18:25:10 10° 161° (SSE) 1,692 9.3 -13.2°
Maximum altitude 18:28:48 71° 77° (ENE) 536 6.5 -13.9°
Drops below altitude 10° 18:32:31 10° 354° (N) 1,736 9.2 -14.6°
Sets 18:34:39 0° 352° (N) 2,634 10.2 -15.1°
